�������l�o���
Date,Time,MP-1(��Sv/h),MP-2(��Sv/h),MP-3(��Sv/h),MP-4(��Sv/h),MP-5(��Sv/h),MP-6(��Sv/h),MP-7(��Sv/h),MP-8(��Sv/h),����,����(m/s),���J
2019/05/29,00:00,0.782,1.132,0.779,1.424,1.050,0.445,0.774,0.732,�k�k��,2.6,��
2019/05/29,00:10,0.783,1.132,0.782,1.424,1.049,0.444,0.775,0.731,�k,2.5,��
2019/05/29,00:20,0.782,1.136,0.782,1.423,1.049,0.445,0.774,0.732,�k,3.3,�L
2019/05/29,00:30,0.780,1.135,0.782,1.423,1.051,0.444,0.776,0.731,�k,4.2,�L
2019/05/29,00:40,0.782,1.133,0.784,1.423,1.050,0.444,0.775,0.732,�k�k��,3.5,��
2019/05/29,00:50,0.782,1.134,0.780,1.426,1.049,0.445,0.775,0.730,�k,3.0,��
2019/05/29,01:00,0.782,1.134,0.781,1.422,1.050,0.444,0.775,0.729,�k,2.6,��
2019/05/29,01:10,0.783,1.133,0.782,1.425,1.050,0.445,0.775,0.729,�k�k��,1.9,��
2019/05/29,01:20,0.782,1.133,0.781,1.422,1.050,0.445,0.773,0.730,���k��,0.6,��
2019/05/29,01:30,0.780,1.133,0.778,1.426,1.052,0.444,0.774,0.732,��,0.9,��
2019/05/29,01:40,0.779,1.133,0.781,1.423,1.050,0.444,0.776,0.732,�쓌,1.7,��
2019/05/29,01:50,0.780,1.132,0.779,1.422,1.051,0.444,0.773,0.732,��쓌,2.3,��
2019/05/29,02:00,0.781,1.133,0.780,1.421,1.050,0.444,0.776,0.731,��쓌,3.1,��
2019/05/29,02:10,0.778,1.132,0.782,1.423,1.048,0.443,0.773,0.731,��쓌,2.5,��
2019/05/29,02:20,0.781,1.133,0.781,1.422,1.049,0.444,0.773,0.731,��쓌,1.7,��
2019/05/29,02:30,0.779,1.131,0.781,1.423,1.048,0.443,0.774,0.731,�쓌,1.4,�L
2019/05/29,02:40,0.779,1.131,0.779,1.423,1.048,0.444,0.774,0.731,��쓌,1.2,�L
2019/05/29,02:50,0.779,1.132,0.780,1.422,1.048,0.444,0.774,0.731,��쐼,1.1,�L
2019/05/29,03:00,0.779,1.130,0.780,1.422,1.049,0.444,0.773,0.732,��,1.2,�L
2019/05/29,03:10,0.778,1.133,0.779,1.420,1.047,0.445,0.774,0.731,���k��,2.2,�L
2019/05/29,03:20,0.780,1.130,0.779,1.420,1.047,0.444,0.773,0.730,��,3.1,�L
2019/05/29,03:30,0.778,1.127,0.777,1.419,1.044,0.444,0.772,0.729,�k��,2.5,�L
2019/05/29,03:40,0.774,1.120,0.775,1.417,1.039,0.444,0.770,0.726,���k��,3.4,�L
2019/05/29,03:50,0.771,1.114,0.775,1.411,1.031,0.445,0.770,0.727,���쐼,0.9,�L
2019/05/29,04:00,0.769,1.107,0.772,1.408,1.027,0.445,0.769,0.724,-,CALM,�L
2019/05/29,04:10,0.770,1.103,0.771,1.401,1.020,0.443,0.766,0.723,-,CALM,�L
2019/05/29,04:20,0.766,1.096,0.766,1.394,1.018,0.444,0.765,0.721,�k�k��,2.3,�L
2019/05/29,04:30,0.764,1.091,0.767,1.396,1.016,0.442,0.766,0.721,�k��,2.6,�L
2019/05/29,04:40,0.762,1.092,0.768,1.391,1.014,0.443,0.765,0.722,�k��,2.5,��
2019/05/29,04:50,0.761,1.088,0.765,1.388,1.015,0.440,0.764,0.722,�k��,2.2,��
2019/05/29,05:00,0.761,1.090,0.763,1.387,1.015,0.440,0.764,0.721,���k��,1.7,�L
2019/05/29,05:10,0.758,1.089,0.760,1.387,1.012,0.441,0.761,0.721,�k��,2.8,�L
2019/05/29,05:20,0.760,1.078,0.760,1.379,1.008,0.441,0.762,0.721,��,2.0,�L
2019/05/29,05:30,0.756,1.071,0.756,1.372,1.002,0.440,0.760,0.719,�k�k��,2.0,�L
2019/05/29,05:40,0.756,1.071,0.757,1.363,0.998,0.438,0.759,0.717,�k,7.9,�L
2019/05/29,05:50,0.753,1.068,0.755,1.363,0.997,0.439,0.757,0.717,�k,6.6,�L
2019/05/29,06:00,0.754,1.070,0.754,1.358,0.997,0.440,0.757,0.716,�k,6.8,�L
2019/05/29,06:10,0.752,1.069,0.753,1.359,0.999,0.438,0.757,0.716,�k,6.4,�L
2019/05/29,06:20,0.753,1.068,0.752,1.354,0.999,0.441,0.756,0.716,�k,5.5,�L
2019/05/29,06:30,0.751,1.060,0.753,1.352,0.994,0.440,0.756,0.716,�k�k��,6.5,�L
2019/05/29,06:40,0.752,1.062,0.752,1.350,0.996,0.439,0.755,0.716,�k,6.5,�L
2019/05/29,06:50,0.751,1.062,0.752,1.348,0.994,0.438,0.756,0.717,�k,6.4,�L
2019/05/29,07:00,0.752,1.064,0.750,1.350,0.995,0.439,0.757,0.715,�k,6.6,�L
2019/05/29,07:10,0.748,1.061,0.751,1.347,0.992,0.438,0.756,0.714,�k,7.1,�L
2019/05/29,07:20,0.747,1.057,0.751,1.343,0.990,0.439,0.752,0.714,�k,7.0,�L
2019/05/29,07:30,0.749,1.058,0.748,1.341,0.987,0.437,0.752,0.714,�k,7.3,�L
2019/05/29,07:40,0.749,1.059,0.750,1.341,0.988,0.438,0.753,0.714,�k,6.8,�L
2019/05/29,07:50,0.746,1.056,0.748,1.341,0.986,0.438,0.754,0.713,�k,7.2,�L
2019/05/29,08:00,0.746,1.051,0.744,1.340,0.987,0.437,0.753,0.712,�k,6.3,�L
2019/05/29,08:10,0.746,1.054,0.746,1.338,0.984,0.438,0.749,0.713,�k,6.5,�L
2019/05/29,08:20,0.744,1.050,0.745,1.337,0.982,0.437,0.752,0.711,�k,6.1,�L
2019/05/29,08:30,0.745,1.051,0.743,1.332,0.982,0.436,0.751,0.714,�k,5.0,�L
2019/05/29,08:40,0.745,1.048,0.741,1.333,0.983,0.436,0.750,0.713,�k,5.7,�L
2019/05/29,08:50,0.743,1.047,0.741,1.333,0.982,0.434,0.750,0.710,�k,6.4,�L
2019/05/29,09:00,0.743,1.049,0.742,1.334,0.981,0.433,0.750,0.711,�k,6.4,�L
2019/05/29,09:10,0.741,1.045,0.740,1.334,0.979,0.432,0.749,0.711,�k,6.5,�L
2019/05/29,09:20,0.740,1.046,0.739,1.333,0.980,0.432,0.750,0.712,�k,6.0,�L
2019/05/29,09:30,0.739,1.046,0.740,1.330,0.976,0.431,0.748,0.711,�k�k��,6.1,�L
2019/05/29,09:40,0.737,1.044,0.736,1.329,0.979,0.431,0.749,0.710,�k,6.3,�L
2019/05/29,09:50,0.737,1.047,0.738,1.328,0.979,0.430,0.749,0.710,�k,6.5,�L
2019/05/29,10:00,0.737,1.045,0.737,1.333,0.979,0.430,0.748,0.710,�k,6.7,�L
2019/05/29,10:10,0.737,1.046,0.737,1.329,0.979,0.430,0.749,0.713,�k,6.8,�L
2019/05/29,10:20,0.738,1.046,0.734,1.331,0.977,0.429,0.748,0.710,�k,6.8,�L
2019/05/29,10:30,0.736,1.044,0.733,1.328,0.977,0.430,0.747,0.713,�k�k��,7.8,�L
2019/05/29,10:40,0.735,1.044,0.735,1.326,0.978,0.429,0.748,0.710,�k�k��,7.6,�L
2019/05/29,10:50,0.736,1.046,0.733,1.328,0.977,0.426,0.749,0.712,�k�k��,6.5,�L
2019/05/29,11:00,0.735,1.045,0.733,1.329,0.976,0.428,0.748,0.710,�k�k��,5.8,�L
2019/05/29,11:10,0.736,1.043,0.731,1.330,0.977,0.431,0.747,0.712,�k�k��,5.3,�L
2019/05/29,11:20,0.735,1.041,0.735,1.331,0.975,0.430,0.748,0.712,�k�k��,5.9,�L
2019/05/29,11:30,0.736,1.042,0.733,1.330,0.974,0.430,0.748,0.711,�k�k��,5.2,�L
2019/05/29,11:40,0.735,1.045,0.734,1.329,0.974,0.428,0.747,0.709,�k,4.7,��
2019/05/29,11:50,0.735,1.044,0.734,1.331,0.974,0.428,0.748,0.712,�k,4.5,��
2019/05/29,12:00,0.732,1.044,0.734,1.332,0.978,0.428,0.748,0.713,�k�k��,4.8,��
2019/05/29,12:10,0.734,1.043,0.734,1.330,0.977,0.429,0.748,0.710,�k��,4.8,��
2019/05/29,12:20,0.733,1.044,0.733,1.333,0.978,0.427,0.749,0.714,�k��,5.0,��
2019/05/29,12:30,0.734,1.046,0.732,1.330,0.976,0.427,0.750,0.713,�k�k��,5.0,��
2019/05/29,12:40,0.734,1.044,0.732,1.333,0.977,0.427,0.749,0.710,�k��,5.1,��
2019/05/29,12:50,0.734,1.044,0.733,1.333,0.977,0.428,0.750,0.710,�k��,5.3,��
2019/05/29,13:00,0.734,1.047,0.731,1.332,0.978,0.427,0.750,0.711,�k�k��,4.5,��
2019/05/29,13:10,0.734,1.049,0.733,1.332,0.977,0.427,0.750,0.712,�k�k��,4.1,��
2019/05/29,13:20,0.734,1.045,0.733,1.332,0.978,0.426,0.749,0.710,�k�k��,3.6,��
2019/05/29,13:30,0.737,1.047,0.731,1.333,0.981,0.427,0.751,0.710,�k�k��,3.7,��
2019/05/29,13:40,0.735,1.048,0.733,1.334,0.980,0.426,0.751,0.710,�k�k��,2.6,��
2019/05/29,13:50,0.736,1.049,0.734,1.333,0.983,0.426,0.752,0.712,�k��,3.2,��
2019/05/29,14:00,0.737,1.049,0.733,1.331,0.981,0.428,0.751,0.712,�k��,3.3,��
2019/05/29,14:10,0.737,1.050,0.733,1.331,0.984,0.428,0.752,0.711,�k��,3.8,��
2019/05/29,14:20,0.737,1.050,0.733,1.332,0.984,0.428,0.751,0.713,�k�k��,3.8,��
2019/05/29,14:30,0.738,1.053,0.734,1.334,0.984,0.430,0.752,0.713,�k��,2.9,��
2019/05/29,14:40,0.738,1.054,0.735,1.333,0.985,0.429,0.750,0.712,���k��,2.9,��
2019/05/29,14:50,0.738,1.052,0.732,1.335,0.983,0.430,0.752,0.714,���k��,2.6,��
2019/05/29,15:00,0.736,1.051,0.735,1.334,0.985,0.429,0.752,0.712,��,3.4,��
2019/05/29,15:10,0.739,1.053,0.735,1.333,0.986,0.428,0.755,0.713,���k��,3.6,��
2019/05/29,15:20,0.738,1.055,0.735,1.336,0.985,0.428,0.752,0.714,���k��,2.0,��
2019/05/29,15:30,0.740,1.056,0.736,1.335,0.987,0.429,0.754,0.712,�k��,2.6,��
2019/05/29,15:40,0.739,1.057,0.735,1.335,0.987,0.428,0.754,0.713,���k��,1.7,��
2019/05/29,15:50,0.737,1.058,0.735,1.335,0.987,0.428,0.752,0.714,���k��,1.5,��
2019/05/29,16:00,0.739,1.057,0.737,1.337,0.986,0.430,0.753,0.710,�쓌,0.9,��
2019/05/29,16:10,0.738,1.058,0.736,1.337,0.987,0.429,0.753,0.714,�쓌,1.4,��
2019/05/29,16:20,0.737,1.058,0.735,1.338,0.986,0.429,0.753,0.713,-,CALM,��
2019/05/29,16:30,0.737,1.060,0.736,1.337,0.987,0.431,0.752,0.712,�쓌,1.5,��
2019/05/29,16:40,0.737,1.060,0.734,1.336,0.985,0.428,0.755,0.712,��,1.9,��
2019/05/29,16:50,0.739,1.060,0.737,1.337,0.989,0.429,0.752,0.711,���쓌,1.5,��
2019/05/29,17:00,0.739,1.065,0.736,1.336,0.986,0.428,0.753,0.713,��,2.0,��
2019/05/29,17:10,0.738,1.063,0.737,1.339,0.989,0.429,0.752,0.712,���쓌,2.3,��
2019/05/29,17:20,0.739,1.064,0.738,1.337,0.987,0.430,0.753,0.714,��,1.5,��
2019/05/29,17:30,0.737,1.063,0.737,1.341,0.985,0.430,0.753,0.711,��,0.6,��
2019/05/29,17:40,0.738,1.066,0.735,1.341,0.988,0.430,0.753,0.712,�k��,1.1,��
2019/05/29,17:50,0.740,1.067,0.738,1.341,0.986,0.431,0.751,0.714,���k��,1.9,��
2019/05/29,18:00,0.737,1.067,0.738,1.342,0.987,0.430,0.753,0.711,���k��,2.5,��
2019/05/29,18:10,0.736,1.064,0.736,1.340,0.988,0.430,0.751,0.713,��,1.4,��
2019/05/29,18:20,0.738,1.067,0.737,1.344,0.988,0.429,0.751,0.713,�쓌,1.5,��
2019/05/29,18:30,0.738,1.063,0.738,1.345,0.986,0.430,0.752,0.715,���쓌,1.7,��
2019/05/29,18:40,0.741,1.068,0.737,1.346,0.991,0.430,0.751,0.714,���쓌,1.7,��
2019/05/29,18:50,0.740,1.066,0.740,1.343,0.986,0.431,0.751,0.715,��,1.7,��
2019/05/29,19:00,0.740,1.065,0.742,1.343,0.986,0.431,0.751,0.715,���쓌,1.5,��
2019/05/29,19:10,0.741,1.066,0.741,1.345,0.988,0.431,0.753,0.715,�쓌,1.5,��
2019/05/29,19:20,0.741,1.067,0.740,1.344,0.988,0.430,0.751,0.714,���쓌,0.6,��
2019/05/29,19:30,0.741,1.067,0.738,1.345,0.989,0.431,0.753,0.715,���쓌,1.5,��
2019/05/29,19:40,0.742,1.065,0.739,1.344,0.989,0.431,0.753,0.714,��,1.7,��
2019/05/29,19:50,0.741,1.065,0.739,1.343,0.990,0.430,0.754,0.716,��,1.5,��
2019/05/29,20:00,0.740,1.065,0.740,1.344,0.988,0.432,0.752,0.713,��쓌,1.1,��
2019/05/29,20:10,0.740,1.066,0.740,1.345,0.988,0.431,0.753,0.717,���쓌,1.1,��
2019/05/29,20:20,0.741,1.066,0.740,1.345,0.990,0.431,0.754,0.716,��쐼,1.2,��
2019/05/29,20:30,0.739,1.065,0.740,1.345,0.989,0.432,0.754,0.714,��쐼,0.6,��
2019/05/29,20:40,0.743,1.067,0.738,1.344,0.991,0.431,0.753,0.715,��쐼,0.9,��
2019/05/29,20:50,0.740,1.066,0.739,1.343,0.989,0.430,0.753,0.715,�쐼,1.5,��
2019/05/29,21:00,0.740,1.067,0.739,1.344,0.991,0.431,0.754,0.715,���쐼,2.2,��
2019/05/29,21:10,0.739,1.067,0.739,1.343,0.991,0.430,0.754,0.714,��,1.4,��
2019/05/29,21:20,0.739,1.067,0.739,1.344,0.989,0.432,0.754,0.716,�쐼,1.2,��
2019/05/29,21:30,0.741,1.067,0.740,1.343,0.991,0.430,0.753,0.715,��,1.2,��
2019/05/29,21:40,0.741,1.065,0.738,1.345,0.991,0.431,0.755,0.716,���쐼,1.7,��
2019/05/29,21:50,0.741,1.064,0.739,1.342,0.991,0.432,0.756,0.717,�쐼,1.7,��
2019/05/29,22:00,0.740,1.066,0.739,1.343,0.990,0.432,0.754,0.714,�쐼,1.7,��
2019/05/29,22:10,0.741,1.066,0.742,1.345,0.991,0.432,0.756,0.716,�쐼,1.2,��
2019/05/29,22:20,0.741,1.065,0.740,1.346,0.992,0.430,0.753,0.715,��,1.4,��
2019/05/29,22:30,0.738,1.067,0.740,1.344,0.990,0.431,0.753,0.714,�쐼,1.2,��
2019/05/29,22:40,0.741,1.063,0.738,1.344,0.991,0.431,0.755,0.717,�쓌,0.8,��
2019/05/29,22:50,0.740,1.065,0.738,1.345,0.990,0.431,0.755,0.715,-,CALM,��
2019/05/29,23:00,0.741,1.065,0.738,1.343,0.990,0.431,0.754,0.714,���k��,0.9,��
2019/05/29,23:10,0.741,1.065,0.737,1.344,0.990,0.431,0.755,0.714,���쐼,0.9,��
2019/05/29,23:20,0.741,1.062,0.741,1.345,0.989,0.431,0.755,0.714,�k��,0.9,��
2019/05/29,23:30,0.741,1.066,0.740,1.342,0.990,0.431,0.756,0.712,�k�k��,1.5,��
2019/05/29,23:40,0.739,1.066,0.740,1.343,0.992,0.432,0.753,0.714,�k,1.2,��
2019/05/29,23:50,0.739,1.064,0.738,1.343,0.991,0.432,0.754,0.715,�k��,2.3,��
